EW4415 Weather Reports


time (UTC)temp
C
wind
direction
speed
KPH
gust
KPH
rain 1hr
cm
rain 24hr
cm
rain mn
cm
humidity
%
barometer
mb
20260508144545 15 355 0.0 0.0 0.00 0.00 0.00 28 1025.7
20260508143045 15 30 0.0 1.6 0.00 0.00 0.00 26 1025.7
20260508141541 15 11 0.0 1.6 0.00 0.00 0.00 25 1025.9
20260508140039 15 78 0.0 12.9 0.00 0.00 0.00 26 1025.8
20260508134541 15 263 0.0 17.7 0.00 0.00 0.00 28 1025.9
20260508133045 15 345 0.0 24.1 0.00 0.00 0.00 23 1025.9
20260508131545 15 290 0.0 16.1 0.00 0.00 0.00 24 1025.9
20260508130042 15 16 1.6 19.3 0.00 0.00 0.00 28 1025.9
20260508124535 15 233 1.6 19.3 0.00 0.00 0.00 28 1026.0
20260508123037 15 5 0.0 3.2 0.00 0.00 0.00 29 1025.9
20260508121535 14 111 0.0 16.1 0.00 0.00 0.00 30 1026.0
20260508120031 15 294 0.0 0.0 0.00 0.00 0.00 28 1026.0
20260508114530 15 259 0.0 27.4 0.00 0.00 0.00 32 1026.0
20260508113030 14 360 0.0 1.6 0.00 0.00 0.00 30 1026.1
20260508111528 14 316 0.0 4.8 0.00 0.00 0.00 30 1026.0
20260508110031 14 11 0.0 1.6 0.00 0.00 0.00 32 1026.1
20260508104525 13 42 0.0 3.2 0.00 0.00 0.00 31 1026.0
20260508103023 13 355 0.0 4.8 0.00 0.00 0.00 33 1026.1
20260508101532 13 313 0.0 3.2 0.00 0.00 0.00 34 1025.9
20260508100021 13 24 0.0 14.5 0.00 0.00 0.00 33 1026.0
20260508094519 13 37 0.0 17.7 0.00 0.00 0.00 35 1025.9
20260508093036 13 28 0.0 3.2 0.00 0.00 0.00 37 1025.8
20260508091512 12 41 0.0 16.1 0.00 0.00 0.00 37 1025.9
20260508090023 12 330 0.0 8.0 0.00 0.00 0.00 37 1025.9
20260508084507 12 302 0.0 4.8 0.00 0.00 0.00 38 1025.8
20260508083004 12 30 0.0 3.2 0.00 0.00 0.00 41 1025.7
20260508081616 11 336 0.0 12.9 0.00 0.00 0.00 40 1025.7
20260508080056 11 15 0.0 3.2 0.00 0.00 0.00 42 1025.6
20260508074555 11 75 0.0 3.2 0.00 0.00 0.00 43 1025.6
20260508073052 11 288 0.0 0.0 0.00 0.00 0.00 49 1025.4
20260508071545 10 23 0.0 3.2 0.00 0.00 0.00 48 1025.3
20260508070041 10 328 0.0 0.0 0.00 0.00 0.00 50 1025.2
20260508064536 8 317 0.0 12.9 0.00 0.00 0.00 52 1025.1
20260508063033 8 293 0.0 14.5 0.00 0.00 0.00 52 1025.0
20260508061530 8 9 0.0 3.2 0.00 0.00 0.00 54 1024.8
20260508060027 7 348 0.0 0.0 0.00 0.00 0.00 58 1024.6
20260508054524 7 348 0.0 0.0 0.00 0.00 0.00 59 1024.5
20260508053020 6 13 0.0 0.0 0.00 0.00 0.00 59 1024.3
20260508051516 6 311 0.0 0.0 0.00 0.00 0.00 60 1024.1
20260508050015 5 17 0.0 0.0 0.00 0.00 0.00 61 1024.0
20260508044513 5 338 0.0 0.0 0.00 0.00 0.00 60 1023.8
20260508043004 3 355 0.0 0.0 0.00 0.00 0.00 60 1023.7
20260508041602 3 327 0.0 0.0 0.00 0.00 0.00 59 1023.6
20260508040059 2 336 0.0 0.0 0.00 0.00 0.00 58 1023.5
20260508034601 1 324 0.0 0.0 0.00 0.00 0.00 55 1023.3
20260508033051 0 342 0.0 0.0 0.00 0.00 0.00 49 1023.2
20260508031558 0 300 0.0 0.0 0.00 0.00 0.00 44 1023.0
20260508030105 0 298 0.0 0.0 0.00 0.00 0.00 47 1022.8
20260508024645 0 298 0.0 0.0 0.00 0.00 0.00 50 1022.7
20260508023047 0 298 0.0 0.0 0.00 0.00 0.00 54 1022.5
20260508021540 0 298 0.0 0.0 0.00 0.00 0.00 56 1022.2
20260508020038 0 298 0.0 0.0 0.00 0.00 0.00 59 1021.9
20260508014536 0 298 0.0 0.0 0.00 0.00 0.00 60 1021.8
20260508013034 1 298 0.0 0.0 0.00 0.00 0.00 61 1021.6
20260508011534 1 291 0.0 0.0 0.00 0.00 0.00 61 1021.4
20260508010039 1 290 0.0 0.0 0.00 0.00 0.00 62 1021.3
20260508004531 1 290 0.0 0.0 0.00 0.00 0.00 61 1021.1
20260508003026 1 289 0.0 0.0 0.00 0.00 0.00 61 1020.9
20260508001531 1 279 0.0 0.0 0.00 0.00 0.00 60 1020.7
20260508000022 1 279 0.0 0.0 0.00 0.00 0.00 61 1020.5
20260507234520 1 279 0.0 0.0 0.00 0.00 0.00 61 1020.4
20260507233018 1 279 0.0 0.0 0.00 0.00 0.00 61 1020.1
20260507231515 0 279 0.0 0.0 0.00 0.00 0.00 60 1019.9
20260507230014 0 279 0.0 0.0 0.00 0.00 0.00 59 1019.7
20260507224512 0 279 0.0 0.0 0.00 0.00 0.00 58 1019.5
20260507223008 0 279 0.0 0.0 0.00 0.00 0.00 56 1019.3
20260507221505 0 279 0.0 0.0 0.00 0.00 0.00 52 1019.2
20260507220003 -1 279 0.0 0.0 0.00 0.00 0.00 45 1019.0
20260507214502 -1 279 0.0 0.0 0.00 0.00 0.00 45 1019.0
20260507213058 -1 279 0.0 0.0 0.00 0.00 0.00 52 1018.7
20260507211555 0 279 0.0 0.0 0.00 0.00 0.00 54 1018.5
20260507210115 0 279 0.0 0.0 0.00 0.00 0.00 56 1018.3
20260507204555 0 279 0.0 0.0 0.00 0.00 0.00 57 1018.1
20260507203044 0 279 0.0 0.0 0.00 0.00 0.00 60 1017.9
20260507201539 1 279 0.0 0.0 0.00 0.00 0.00 61 1017.8
20260507200050 1 279 0.0 0.0 0.00 0.00 0.00 62 1017.7
20260507194532 2 279 0.0 0.0 0.00 0.00 0.00 63 1017.5
20260507193047 2 279 0.0 0.0 0.00 0.00 0.00 63 1017.3
20260507191526 3 279 0.0 0.0 0.00 0.00 0.00 62 1017.2
20260507190028 4 279 0.0 0.0 0.00 0.00 0.00 60 1017.1
20260507184512 5 279 0.0 0.0 0.00 0.00 0.00 58 1017.0
20260507183008 6 279 0.0 0.0 0.00 0.00 0.00 55 1016.9
20260507181503 6 279 0.0 0.0 0.00 0.00 0.00 53 1016.8
20260507180101 7 279 0.0 0.0 0.00 0.00 0.00 50 1016.8
20260507174601 7 279 0.0 0.0 0.00 0.00 0.00 48 1016.6
20260507173125 8 277 0.0 0.0 0.00 0.00 0.00 46 1016.5
20260507171548 9 5 0.0 0.0 0.00 0.00 0.00 43 1016.4
20260507170047 10 275 0.0 0.0 0.00 0.00 0.00 39 1016.3
20260507164539 10 234 0.0 0.0 0.00 0.00 0.00 38 1016.2
20260507163037 10 349 0.0 0.0 0.00 0.00 0.00 35 1016.2
20260507161528 11 309 0.0 3.2 0.00 0.00 0.00 32 1016.2
20260507160038 12 213 0.0 1.6 0.00 0.00 0.00 32 1016.1
20260507154520 12 237 0.0 1.6 0.00 0.00 0.00 33 1016.0
20260507153020 13 33 0.0 0.0 0.00 0.00 0.00 30 1015.9
20260507151511 13 181 0.0 1.6 0.00 0.00 0.00 31 1015.9
20260507150007 13 136 0.0 0.0 0.00 0.00 0.00 33 1015.9